Weather Roundup
Issued by NWS Springfield, MO

Home | Current Version | Previous Version | Text Only | Print | Product List | Glossary On
Versions: 1 2 3 4 5 6 7 8 9 10 11 12 13 14 15 16 17 18 19 20 21 22 23 24 25 26 27 28 29 30 31 32 33 34 35 36 37 38 39 40 41 42 43 44 45 46 47 48 49 50
000
NZUS99 KSGF 271807
HRRSGF

HOURLY WEATHER
NATIONAL WEATHER SERVICE SPRINGFIELD MO
100 PM CDT WED MAY 27 2015

......SGF CWA......

CITY           SKY/WX    TMP DP  RH WIND       PRES   REMARKS
SPRINGFIELD    PTSUNNY   78  63  59 N3        30.11F
6HR MIN TEMP:  65; 6HR MAX TEMP:  81; 6HR PCP:  0.01;

JOPLIN         PTSUNNY   79  66  64 NW3       30.11F
6HR MIN TEMP:  66; 6HR MAX TEMP:  81; 6HR PCP: TRACE;

WEST PLAINS    FAIR      79  64  60 CALM      30.14S
6HR MIN TEMP:  65; 6HR MAX TEMP:  79;

ROLLA          FAIR      77  65  66 NW10      30.09S
6HR MIN TEMP:  63; 6HR MAX TEMP:  77; 6HR PCP: TRACE;

BRANSON        MOSUNNY   79  63  57 CALM      30.13F

......SURROUNDING SGF CWA......

CITY           SKY/WX    TMP DP  RH WIND       PRES   REMARKS
CHANUTE        FAIR      80  62  54 VRB3      30.11S
PARSONS        FAIR      81  67  62 VRB6      30.11S
COFFEYVILLE    FAIR      80  67  64 VRB3      30.09F
EMPORIA        FAIR      77  58  51 SE10      30.11S
GROVE OK       PTSUNNY   79  64  61 CALM      30.11S
ROGERS AR      FAIR      79  65  62 NE6       30.13F
SILOAM SPRINGS FAIR      81  63  54 SW5       30.12F
HARRISON AR    FAIR      80  62  54 VRB7      30.13F
NEAR YELLVILLE   N/A     81  64  57 SE5       30.10S

......KANSAS AND MISSOURI......

CITY           SKY/WX    TMP DP  RH WIND       PRES   REMARKS
KANSAS CTY INT PTSUNNY   79  54  41 E5        30.10F
DOWNTOWN KC    FAIR      80  53  39 CALM      30.09S
COLUMBIA       FAIR      78  58  49 W10       30.10R
SEDALIA        FAIR      78  56  46 W6        30.12S
ST JOSEPH      FAIR      79  54  41 SE3       30.09F
ST LOUIS       FAIR      81  63  54 W10       30.06F
SPIRIT OF STL  FAIR      80  64  58 W10G17    30.05S
KIRKSVILLE     FAIR      76  60  57 W12       30.09S
WICHITA        PTSUNNY   78  63  59 SE12      30.10R
TOPEKA         FAIR      79  53  40 VRB7      30.10S
OLATHE         FAIR      77  55  46 VRB3      30.11R

......TENNESSEE......

CITY           SKY/WX    TMP DP  RH WIND       PRES   REMARKS
MEMPHIS        CLOUDY    77  65  66 W7        30.17S
NASHVILLE      CLOUDY    82  68  62 S9        30.16F

......ARKANSAS.......

CITY           SKY/WX    TMP DP  RH WIND       PRES   REMARKS
FAYETTEVILLE   FAIR      81  67  62 MISG      30.11F
FT SMITH       FAIR      84  65  52 CALM      30.08F
LITTLE ROCK    PTSUNNY   81  68  64 S13       30.12S

......OKLAHOMA.......

CITY           SKY/WX    TMP DP  RH WIND       PRES   REMARKS
TULSA          PTSUNNY   83  65  54 CALM      30.07F
PONCA CITY     FAIR      81  67  62 SE9       30.08S
MCALESTER      LGT RAIN  72  69  90 CALM      30.12F
OKLAHOMA CITY  TSTM      69  65  86 CALM      30.11R FOG

......IOWA............

CITY           SKY/WX    TMP DP  RH WIND       PRES   REMARKS
DES MOINES     FAIR      79  54  41 W6        30.05S
QUAD CITIES    FAIR      74  57  55 NW10G20   30.02S

......ILLINOIS........

CITY           SKY/WX    TMP DP  RH WIND       PRES   REMARKS
QUINCY         FAIR      74  58  57 NW9       30.07S
CHICAGO        PTSUNNY   72  58  61 W16G28    29.98R



USA.gov is the U.S. government's official web portal to all federal, state and local government web resources and services.